When you browse on this site, cookies collect data to enhance your experience and personalize the content and advertising you see.
Visit our Privacy Policy to learn more. By continuing to use the site, you agree to this use of cookies and data.
  • In Portugal
  • List of Countries
  • For 7 days
  • Water Temperature
  • Satellite Maps
  • Weather Map
  • Weather Widgets
  • user-avatar
    Login

    Hourly Weather Mansa

    Today, 22 March, Friday

    Time Temperature Precipitation Wind Pressure Humidity
    00:00 +19°C° 0 mm 0 mps 659 mmHg 88%
    01:00 +18°C° 0 mm 0 mps 658 mmHg 88%
    02:00 +20°C° 0 mm 1 mps 658 mmHg 88%
    03:00 +18°C° 0 mm 0 mps 658 mmHg 89%
    04:00 +18°C° 0 mm 0 mps 658 mmHg 89%
    05:00 +18°C° 0 mm 0 mps 658 mmHg 89%
    06:00 +19°C° 0 mm 0 mps 658 mmHg 88%
    07:00 +20°C° 0 mm 0 mps 659 mmHg 86%
    08:00 +21°C° 0 mm 0 mps 660 mmHg 85%
    09:00 +23°C° 0.2 mm 0 mps 660 mmHg 80%
    10:00 +27°C° 0.2 mm 1 mps 660 mmHg 74%
    11:00 +29°C° 0.2 mm 1 mps 661 mmHg 69%
    12:00 +28°C° 1.1 mm 1 mps 660 mmHg 69%
    13:00 +28°C° 1.1 mm 1 mps 659 mmHg 70%
    14:00 +28°C° 1.1 mm 1 mps 659 mmHg 71%
    15:00 +27°C° 1.3 mm 1 mps 658 mmHg 76%
    16:00 +27°C° 1.3 mm 1 mps 658 mmHg 81%
    17:00 +26°C° 1.3 mm 1 mps 658 mmHg 87%
    18:00 +23°C° 0.1 mm 0 mps 658 mmHg 87%
    19:00 +21°C° 0.1 mm 0 mps 658 mmHg 88%
    20:00 +20°C° 0.1 mm 0 mps 658 mmHg 88%
    21:00 +20°C° 0.7 mm 0 mps 659 mmHg 90%
    22:00 +21°C° 0.7 mm 1 mps 659 mmHg 91%
    23:00 +21°C° 0.7 mm 1 mps 659 mmHg 93%

    Tomorrow, 23 March, Saturday

    Time Temperature Precipitation Wind Pressure Humidity
    00:00 +21°C° 0.2 mm 1 mps 659 mmHg 94%
    01:00 +21°C° 0.2 mm 1 mps 659 mmHg 94%
    02:00 +21°C° 0.2 mm 1 mps 659 mmHg 95%
    03:00 +20°C° 0.1 mm 2 mps 659 mmHg 95%
    04:00 +20°C° 0.1 mm 2 mps 658 mmHg 96%
    05:00 +19°C° 0.1 mm 2 mps 658 mmHg 96%
    06:00 +20°C° 0 mm 3 mps 659 mmHg 94%
    07:00 +20°C° 0 mm 3 mps 659 mmHg 92%
    08:00 +21°C° 0 mm 3 mps 660 mmHg 91%
    09:00 +24°C° 0 mm 3 mps 660 mmHg 84%
    10:00 +25°C° 0 mm 3 mps 661 mmHg 77%
    11:00 +27°C° 0 mm 3 mps 661 mmHg 70%
    12:00 +27°C° 1 mm 2 mps 660 mmHg 73%
    13:00 +27°C° 1 mm 2 mps 659 mmHg 75%
    14:00 +27°C° 1 mm 2 mps 658 mmHg 78%
    15:00 +26°C° 1.6 mm 2 mps 658 mmHg 82%
    16:00 +25°C° 1.6 mm 1 mps 658 mmHg 87%
    17:00 +24°C° 1.6 mm 1 mps 657 mmHg 91%
    18:00 +23°C° 0.3 mm 1 mps 658 mmHg 92%
    19:00 +22°C° 0.3 mm 1 mps 658 mmHg 93%
    20:00 +21°C° 0.3 mm 1 mps 658 mmHg 94%
    21:00 +21°C° 0 mm 1 mps 659 mmHg 95%
    22:00 +20°C° 0 mm 2 mps 659 mmHg 95%
    23:00 +20°C° 0 mm 2 mps 659 mmHg 96%

    Day after tomorrow, 24 March, Sunday

    Time Temperature Precipitation Wind Pressure Humidity
    00:00 +20°C° 0 mm 2 mps 659 mmHg 96%
    01:00 +20°C° 0 mm 2 mps 658 mmHg 96%
    02:00 +19°C° 0 mm 3 mps 658 mmHg 96%
    03:00 +19°C° 0 mm 3 mps 658 mmHg 96%
    04:00 +19°C° 0 mm 3 mps 658 mmHg 97%
    05:00 +19°C° 0 mm 2 mps 658 mmHg 98%
    06:00 +20°C° 0 mm 3 mps 658 mmHg 96%
    07:00 +20°C° 0 mm 3 mps 659 mmHg 94%
    08:00 +21°C° 0 mm 4 mps 660 mmHg 92%
    09:00 +22°C° 0 mm 3 mps 660 mmHg 88%
    10:00 +24°C° 0 mm 3 mps 660 mmHg 84%
    11:00 +24°C° 0 mm 3 mps 660 mmHg 81%
    12:00 +26°C° 0 mm 3 mps 660 mmHg 76%
    13:00 +27°C° 0 mm 2 mps 659 mmHg 72%
    14:00 +28°C° 0 mm 2 mps 658 mmHg 68%
    15:00 +27°C° 1.9 mm 2 mps 658 mmHg 75%
    16:00 +26°C° 1.9 mm 1 mps 658 mmHg 83%
    17:00 +25°C° 1.9 mm 1 mps 657 mmHg 90%
    18:00 +24°C° 2.5 mm 1 mps 658 mmHg 91%
    19:00 +23°C° 2.5 mm 1 mps 658 mmHg 92%
    20:00 +20°C° 2.5 mm 2 mps 658 mmHg 93%
    21:00 +21°C° 0.7 mm 1 mps 659 mmHg 94%
    22:00 +21°C° 0.7 mm 1 mps 659 mmHg 94%
    23:00 +21°C° 0.7 mm 1 mps 659 mmHg 95%

    25 March, Monday

    Time Temperature Precipitation Wind Pressure Humidity
    00:00 +21°C° 0.4 mm 1 mps 659 mmHg 96%
    01:00 +20°C° 0.4 mm 1 mps 658 mmHg 96%
    02:00 +20°C° 0.4 mm 1 mps 658 mmHg 97%
    03:00 +20°C° 0.4 mm 1 mps 658 mmHg 97%
    04:00 +20°C° 0.4 mm 1 mps 658 mmHg 97%
    05:00 +20°C° 0.4 mm 1 mps 658 mmHg 97%
    06:00 +20°C° 0.4 mm 1 mps 658 mmHg 97%
    07:00 +20°C° 0.4 mm 1 mps 659 mmHg 97%
    08:00 +20°C° 0.4 mm 1 mps 659 mmHg 97%
    09:00 +21°C° 0.6 mm 1 mps 659 mmHg 96%
    10:00 +20°C° 0.6 mm 0 mps 659 mmHg 95%
    11:00 +20°C° 0.6 mm 0 mps 659 mmHg 94%
    12:00 +21°C° 1.5 mm 0 mps 659 mmHg 91%
    13:00 +22°C° 1.5 mm 0 mps 658 mmHg 88%
    14:00 +23°C° 1.5 mm 0 mps 658 mmHg 85%
    15:00 +23°C° 0.9 mm 0 mps 657 mmHg 87%
    16:00 +22°C° 0.9 mm 0 mps 657 mmHg 88%
    17:00 +22°C° 0.9 mm 0 mps 657 mmHg 90%
    18:00 +21°C° 0.3 mm 0 mps 658 mmHg 91%
    19:00 +20°C° 0.3 mm 0 mps 658 mmHg 91%
    20:00 +19°C° 0.3 mm 0 mps 659 mmHg 92%
    21:00 +19°C° 0 mm 0 mps 659 mmHg 93%
    22:00 +18°C° 0 mm 0 mps 659 mmHg 93%
    23:00 +18°C° 0 mm 0 mps 659 mmHg 94%

    26 March, Tuesday

    Time Temperature Precipitation Wind Pressure Humidity
    00:00 +18°C° 0 mm 0 mps 658 mmHg 94%
    01:00 +18°C° 0 mm 0 mps 658 mmHg 95%
    02:00 +18°C° 0 mm 0 mps 658 mmHg 95%
    03:00 +17°C° 0 mm 0 mps 658 mmHg 95%
    04:00 +17°C° 0 mm 0 mps 658 mmHg 95%
    05:00 +17°C° 0 mm 0 mps 658 mmHg 96%
    06:00 +18°C° 0 mm 0 mps 659 mmHg 93%
    07:00 +19°C° 0 mm 0 mps 660 mmHg 91%
    08:00 +20°C° 0 mm 0 mps 661 mmHg 88%
    09:00 +22°C° 0.1 mm 0 mps 661 mmHg 81%
    10:00 +26°C° 0.1 mm 1 mps 661 mmHg 73%
    11:00 +28°C° 0.1 mm 1 mps 661 mmHg 66%
    12:00 +28°C° 0.4 mm 1 mps 660 mmHg 65%
    13:00 +29°C° 0.4 mm 1 mps 660 mmHg 65%
    14:00 +29°C° 0.4 mm 1 mps 659 mmHg 64%
    15:00 +28°C° 0.6 mm 1 mps 659 mmHg 70%
    16:00 +27°C° 0.6 mm 1 mps 659 mmHg 77%
    17:00 +27°C° 0.6 mm 1 mps 659 mmHg 83%
    18:00 +25°C° 0.2 mm 1 mps 659 mmHg 87%
    19:00 +23°C° 0.2 mm 1 mps 659 mmHg 91%
    20:00 +22°C° 0.2 mm 1 mps 659 mmHg 95%
    21:00 +21°C° 1.2 mm 1 mps 659 mmHg 94%
    22:00 +19°C° 1.2 mm 0 mps 660 mmHg 93%
    23:00 +19°C° 1.2 mm 0 mps 660 mmHg 92%

    27 March, Wednesday

    Time Temperature Precipitation Wind Pressure Humidity
    00:00 +19°C° 0.1 mm 0 mps 659 mmHg 92%
    01:00 +19°C° 0.1 mm 0 mps 659 mmHg 92%
    02:00 +18°C° 0.1 mm 0 mps 659 mmHg 91%
    03:00 +18°C° 0 mm 0 mps 659 mmHg 92%
    04:00 +18°C° 0 mm 0 mps 659 mmHg 92%
    05:00 +18°C° 0 mm 0 mps 659 mmHg 93%
    06:00 +21°C° 0 mm 1 mps 660 mmHg 92%
    07:00 +21°C° 0 mm 1 mps 660 mmHg 92%
    08:00 +22°C° 0 mm 1 mps 661 mmHg 91%
    09:00 +24°C° 0.3 mm 1 mps 661 mmHg 85%
    10:00 +26°C° 0.3 mm 1 mps 662 mmHg 78%
    11:00 +28°C° 0.3 mm 1 mps 662 mmHg 72%
    12:00 +28°C° 0.5 mm 1 mps 661 mmHg 70%
    13:00 +29°C° 0.5 mm 1 mps 661 mmHg 68%
    14:00 +30°C° 0.5 mm 1 mps 660 mmHg 66%
    15:00 +29°C° 1.3 mm 1 mps 660 mmHg 71%
    16:00 +28°C° 1.3 mm 1 mps 660 mmHg 75%
    17:00 +27°C° 1.3 mm 1 mps 660 mmHg 79%
    18:00 +26°C° 2.4 mm 1 mps 660 mmHg 83%
    19:00 +24°C° 2.4 mm 1 mps 660 mmHg 87%
    20:00 +22°C° 2.4 mm 1 mps 660 mmHg 91%
    21:00 +21°C° 1.2 mm 2 mps 660 mmHg 92%
    22:00 +21°C° 1.2 mm 2 mps 661 mmHg 93%
    23:00 +20°C° 1.2 mm 2 mps 661 mmHg 94%
    Show more